Wolke Sonne

Wetter Ammerndorf

Gehe zu: Roßtal

Tageswerte vom Samstag, 01.10.2022

Optionen

Tag:
Erweitert:

Alle Werte vom Samstag, 01.10.2022

Einen Moment bitte, die Daten werden aufbereitet...

UhrzeitTemperaturBoden 10cmBoden 20cmFeuchteLuftdruckNiederschlagEvapotranspirationWindWindböenWindrichtungSolarstrahlungUV-IndexSonne?Uhrzeit
Diagramm IconDiagramm IconDiagramm IconDiagramm IconDiagramm IconDiagramm IconDiagramm IconDiagramm IconDiagramm IconDiagramm IconDiagramm IconDiagramm IconDiagramm Icon
00:003,6 °C 12,2 °C 13,3 °C 94 % 1015,0 hPa 0,0 mm - 0,0 km/h 0,0 km/h SW 0,0 W/qm 0,0 nein 00:00
00:053,6 °C 12,2 °C 13,3 °C 94 % 1015,0 hPa 0,0 mm 0,0 mm 0,0 km/h 0,0 km/h SW 0,0 W/qm 0,0 nein 00:05
00:103,7 °C 12,2 °C 13,3 °C 94 % 1015,1 hPa 0,0 mm 0,0 mm 0,0 km/h 0,0 km/h SW 0,0 W/qm 0,0 nein 00:10
00:153,6 °C 12,2 °C 13,3 °C 94 % 1015,1 hPa 0,0 mm - 0,0 km/h 0,0 km/h SW 0,0 W/qm 0,0 nein 00:15
00:203,3 °C 12,2 °C 13,3 °C 94 % 1014,9 hPa 0,0 mm - 0,0 km/h 0,0 km/h SW 0,0 W/qm 0,0 nein 00:20
00:253,3 °C 12,2 °C 13,3 °C 94 % 1014,9 hPa 0,0 mm - 0,0 km/h 0,0 km/h SW 0,0 W/qm 0,0 nein 00:25
00:303,3 °C 12,2 °C 13,3 °C 94 % 1014,9 hPa 0,0 mm - 0,0 km/h 0,0 km/h SW 0,0 W/qm 0,0 nein 00:30
00:353,3 °C 12,2 °C 13,3 °C 94 % 1015,0 hPa 0,0 mm - 0,0 km/h 0,0 km/h SW 0,0 W/qm 0,0 nein 00:35
00:403,2 °C 12,2 °C 13,3 °C 94 % 1015,0 hPa 0,0 mm - 0,0 km/h 0,0 km/h SW 0,0 W/qm 0,0 nein 00:40
00:453,1 °C 12,2 °C 13,3 °C 94 % 1015,2 hPa 0,0 mm - 0,0 km/h 0,0 km/h SW 0,0 W/qm 0,0 nein 00:45
00:503,1 °C 12,2 °C 13,3 °C 94 % 1015,0 hPa 0,0 mm - 0,0 km/h 0,0 km/h SW 0,0 W/qm 0,0 nein 00:50
00:553,1 °C 12,2 °C 13,3 °C 94 % 1015,1 hPa 0,0 mm - 0,0 km/h 0,0 km/h SW 0,0 W/qm 0,0 nein 00:55
01:003,0 °C 12,2 °C 13,3 °C 94 % 1015,1 hPa 0,0 mm - 0,0 km/h 0,0 km/h SW 0,0 W/qm 0,0 nein 01:00
01:052,9 °C 12,2 °C 13,3 °C 94 % 1015,1 hPa 0,0 mm 0,0 mm 0,0 km/h 0,0 km/h SW 0,0 W/qm 0,0 nein 01:05
01:103,0 °C 12,2 °C 13,3 °C 94 % 1015,1 hPa 0,0 mm 0,0 mm 0,0 km/h 0,0 km/h SW 0,0 W/qm 0,0 nein 01:10
01:152,9 °C 12,2 °C 13,3 °C 94 % 1015,1 hPa 0,0 mm - 0,0 km/h 0,0 km/h SW 0,0 W/qm 0,0 nein 01:15
01:202,9 °C 12,2 °C 13,3 °C 94 % 1015,1 hPa 0,0 mm - 0,0 km/h 0,0 km/h SW 0,0 W/qm 0,0 nein 01:20
01:252,8 °C 12,2 °C 13,3 °C 94 % 1015,1 hPa 0,0 mm - 0,0 km/h 0,0 km/h SW 0,0 W/qm 0,0 nein 01:25
01:302,8 °C 12,2 °C 13,3 °C 95 % 1015,0 hPa 0,0 mm - 0,0 km/h 0,0 km/h SW 0,0 W/qm 0,0 nein 01:30
01:352,8 °C 11,7 °C 13,3 °C 94 % 1015,0 hPa 0,0 mm - 0,0 km/h 0,0 km/h SW 0,0 W/qm 0,0 nein 01:35
01:402,8 °C 11,7 °C 13,3 °C 94 % 1015,0 hPa 0,0 mm - 0,0 km/h 0,0 km/h SW 0,0 W/qm 0,0 nein 01:40
01:452,7 °C 11,7 °C 13,3 °C 94 % 1014,9 hPa 0,0 mm - 0,0 km/h 0,0 km/h SW 0,0 W/qm 0,0 nein 01:45
01:502,7 °C 11,7 °C 13,3 °C 94 % 1014,9 hPa 0,0 mm - 0,0 km/h 0,0 km/h SW 0,0 W/qm 0,0 nein 01:50
01:552,7 °C 11,7 °C 13,3 °C 94 % 1015,0 hPa 0,0 mm - 0,0 km/h 0,0 km/h SW 0,0 W/qm 0,0 nein 01:55
UhrzeitTemperaturBoden 10cmBoden 20cmFeuchteLuftdruckNiederschlagEvapotranspirationWindWindböenWindrichtungSolarstrahlungUV-IndexSonne?Uhrzeit
02:002,5 °C 11,7 °C 13,3 °C 94 % 1015,0 hPa 0,0 mm - 0,0 km/h 0,0 km/h SW 0,0 W/qm 0,0 nein 02:00
02:052,3 °C 11,7 °C 13,3 °C 94 % 1015,1 hPa 0,0 mm 0,0 mm 0,0 km/h 0,0 km/h SW 0,0 W/qm 0,0 nein 02:05
02:102,3 °C 11,7 °C 13,3 °C 94 % 1015,3 hPa 0,0 mm 0,0 mm 0,0 km/h 0,0 km/h SW 0,0 W/qm 0,0 nein 02:10
02:152,3 °C 11,7 °C 13,3 °C 94 % 1015,3 hPa 0,0 mm - 0,0 km/h 0,0 km/h SW 0,0 W/qm 0,0 nein 02:15
02:202,3 °C 11,7 °C 12,8 °C 94 % 1015,3 hPa 0,0 mm - 0,0 km/h 0,0 km/h SW 0,0 W/qm 0,0 nein 02:20
02:252,3 °C 11,7 °C 12,8 °C 94 % 1015,2 hPa 0,0 mm - 0,0 km/h 0,0 km/h SW 0,0 W/qm 0,0 nein 02:25
02:302,6 °C 11,7 °C 12,8 °C 95 % 1015,1 hPa 0,0 mm - 0,0 km/h 0,0 km/h SW 0,0 W/qm 0,0 nein 02:30
02:352,7 °C 11,7 °C 12,8 °C 95 % 1015,3 hPa 0,0 mm - 0,0 km/h 0,0 km/h SW 0,0 W/qm 0,0 nein 02:35
02:403,0 °C 11,7 °C 12,8 °C 95 % 1015,2 hPa 0,0 mm - 0,0 km/h 0,0 km/h O 0,0 W/qm 0,0 nein 02:40
02:453,3 °C 11,7 °C 12,8 °C 95 % 1015,0 hPa 0,0 mm - 0,0 km/h 3,2 km/h O 0,0 W/qm 0,0 nein 02:45
02:503,5 °C 11,7 °C 12,8 °C 95 % 1015,0 hPa 0,0 mm - 0,0 km/h 3,2 km/h O 0,0 W/qm 0,0 nein 02:50
02:553,6 °C 11,7 °C 12,8 °C 95 % 1014,8 hPa 0,0 mm - 0,0 km/h 3,2 km/h O 0,0 W/qm 0,0 nein 02:55
03:003,8 °C 11,7 °C 12,8 °C 95 % 1014,8 hPa 0,0 mm - 0,0 km/h 0,0 km/h O 0,0 W/qm 0,0 nein 03:00
03:054,0 °C 11,7 °C 12,8 °C 95 % 1014,7 hPa 0,0 mm 0,0 mm 0,0 km/h 0,0 km/h O 0,0 W/qm 0,0 nein 03:05
03:104,0 °C 11,7 °C 12,8 °C 95 % 1014,7 hPa 0,0 mm 0,0 mm 0,0 km/h 0,0 km/h O 0,0 W/qm 0,0 nein 03:10
03:153,9 °C 11,7 °C 12,8 °C 95 % 1014,7 hPa 0,0 mm - 0,0 km/h 0,0 km/h O 0,0 W/qm 0,0 nein 03:15
03:203,8 °C 11,7 °C 12,8 °C 95 % 1014,6 hPa 0,0 mm - 0,0 km/h 0,0 km/h O 0,0 W/qm 0,0 nein 03:20
03:253,8 °C 11,7 °C 12,8 °C 95 % 1014,5 hPa 0,0 mm - 0,0 km/h 3,2 km/h O 0,0 W/qm 0,0 nein 03:25
03:303,7 °C 11,7 °C 12,8 °C 95 % 1014,6 hPa 0,0 mm - 0,0 km/h 3,2 km/h O 0,0 W/qm 0,0 nein 03:30
03:353,6 °C 11,7 °C 12,8 °C 95 % 1014,6 hPa 0,0 mm - 0,0 km/h 3,2 km/h O 0,0 W/qm 0,0 nein 03:35
03:403,3 °C 11,7 °C 12,8 °C 94 % 1014,6 hPa 0,0 mm - 0,0 km/h 0,0 km/h O 0,0 W/qm 0,0 nein 03:40
03:453,3 °C 11,7 °C 12,8 °C 95 % 1014,6 hPa 0,0 mm - 0,0 km/h 0,0 km/h O 0,0 W/qm 0,0 nein 03:45
03:503,1 °C 11,7 °C 12,8 °C 94 % 1014,5 hPa 0,0 mm - 0,0 km/h 0,0 km/h O 0,0 W/qm 0,0 nein 03:50
03:553,1 °C 11,7 °C 12,8 °C 95 % 1014,6 hPa 0,0 mm - 0,0 km/h 0,0 km/h O 0,0 W/qm 0,0 nein 03:55
UhrzeitTemperaturBoden 10cmBoden 20cmFeuchteLuftdruckNiederschlagEvapotranspirationWindWindböenWindrichtungSolarstrahlungUV-IndexSonne?Uhrzeit
04:003,1 °C 11,7 °C 12,8 °C 95 % 1014,4 hPa 0,0 mm - 0,0 km/h 0,0 km/h O 0,0 W/qm 0,0 nein 04:00
04:053,2 °C 11,7 °C 12,8 °C 95 % 1014,4 hPa 0,0 mm 0,0 mm 0,0 km/h 0,0 km/h O 0,0 W/qm 0,0 nein 04:05
04:103,2 °C 11,7 °C 12,8 °C 95 % 1014,3 hPa 0,0 mm 0,0 mm 0,0 km/h 0,0 km/h O 0,0 W/qm 0,0 nein 04:10
04:153,1 °C 11,7 °C 12,8 °C 95 % 1014,3 hPa 0,0 mm - 0,0 km/h 0,0 km/h O 0,0 W/qm 0,0 nein 04:15
04:202,9 °C 11,7 °C 12,8 °C 95 % 1014,3 hPa 0,0 mm - 0,0 km/h 0,0 km/h O 0,0 W/qm 0,0 nein 04:20
04:252,9 °C 11,7 °C 12,8 °C 95 % 1014,2 hPa 0,2 mm - 0,0 km/h 0,0 km/h O 0,0 W/qm 0,0 nein 04:25
04:302,9 °C 11,7 °C 12,8 °C 95 % 1014,3 hPa 0,0 mm - 0,0 km/h 0,0 km/h O 0,0 W/qm 0,0 nein 04:30
04:352,8 °C 11,7 °C 12,8 °C 95 % 1014,3 hPa 0,0 mm - 0,0 km/h 0,0 km/h O 0,0 W/qm 0,0 nein 04:35
04:402,6 °C 11,7 °C 12,8 °C 95 % 1014,3 hPa 0,0 mm - 0,0 km/h 0,0 km/h O 0,0 W/qm 0,0 nein 04:40
04:452,6 °C 11,7 °C 12,8 °C 95 % 1014,3 hPa 0,0 mm - 0,0 km/h 0,0 km/h O 0,0 W/qm 0,0 nein 04:45
04:502,5 °C 11,7 °C 12,8 °C 95 % 1014,3 hPa 0,0 mm - 0,0 km/h 0,0 km/h O 0,0 W/qm 0,0 nein 04:50
04:552,5 °C 11,7 °C 12,8 °C 95 % 1014,3 hPa 0,0 mm - 0,0 km/h 0,0 km/h O 0,0 W/qm 0,0 nein 04:55
05:002,7 °C 11,7 °C 12,8 °C 95 % 1014,3 hPa 0,0 mm - 0,0 km/h 0,0 km/h O 0,0 W/qm 0,0 nein 05:00
05:052,8 °C 11,7 °C 12,8 °C 95 % 1014,2 hPa 0,0 mm 0,0 mm 0,0 km/h 0,0 km/h O 0,0 W/qm 0,0 nein 05:05
05:102,8 °C 11,7 °C 12,8 °C 95 % 1014,1 hPa 0,0 mm 0,0 mm 0,0 km/h 0,0 km/h O 0,0 W/qm 0,0 nein 05:10
05:152,7 °C 11,7 °C 12,8 °C 95 % 1014,1 hPa 0,0 mm - 0,0 km/h 0,0 km/h O 0,0 W/qm 0,0 nein 05:15
05:202,7 °C 11,7 °C 12,8 °C 95 % 1014,2 hPa 0,0 mm - 0,0 km/h 0,0 km/h O 0,0 W/qm 0,0 nein 05:20
05:252,6 °C 11,7 °C 12,8 °C 95 % 1014,2 hPa 0,0 mm - 0,0 km/h 0,0 km/h O 0,0 W/qm 0,0 nein 05:25
05:302,7 °C 11,7 °C 12,8 °C 95 % 1014,1 hPa 0,0 mm - 0,0 km/h 0,0 km/h O 0,0 W/qm 0,0 nein 05:30
05:352,9 °C 11,7 °C 12,8 °C 95 % 1014,2 hPa 0,0 mm - 0,0 km/h 0,0 km/h O 0,0 W/qm 0,0 nein 05:35
05:403,0 °C 11,1 °C 12,8 °C 95 % 1013,9 hPa 0,0 mm - 0,0 km/h 0,0 km/h O 0,0 W/qm 0,0 nein 05:40
05:453,1 °C 11,1 °C 12,8 °C 95 % 1013,9 hPa 0,0 mm - 0,0 km/h 0,0 km/h O 0,0 W/qm 0,0 nein 05:45
05:503,2 °C 11,1 °C 12,8 °C 95 % 1013,9 hPa 0,0 mm - 0,0 km/h 0,0 km/h O 0,0 W/qm 0,0 nein 05:50
05:553,3 °C 11,1 °C 12,8 °C 95 % 1013,8 hPa 0,0 mm - 0,0 km/h 0,0 km/h O 0,0 W/qm 0,0 nein 05:55
UhrzeitTemperaturBoden 10cmBoden 20cmFeuchteLuftdruckNiederschlagEvapotranspirationWindWindböenWindrichtungSolarstrahlungUV-IndexSonne?Uhrzeit
06:003,4 °C 11,1 °C 12,8 °C 95 % 1013,7 hPa 0,0 mm - 0,0 km/h 0,0 km/h O 0,0 W/qm 0,0 nein 06:00
06:053,7 °C 11,1 °C 12,8 °C 95 % 1013,5 hPa 0,0 mm 0,0 mm 0,0 km/h 0,0 km/h O 0,0 W/qm 0,0 nein 06:05
06:103,7 °C 11,1 °C 12,8 °C 95 % 1013,5 hPa 0,0 mm 0,0 mm 0,0 km/h 0,0 km/h O 0,0 W/qm 0,0 nein 06:10
06:154,0 °C 11,1 °C 12,8 °C 95 % 1013,5 hPa 0,0 mm - 0,0 km/h 0,0 km/h O 0,0 W/qm 0,0 nein 06:15
06:204,1 °C 11,1 °C 12,8 °C 95 % 1013,4 hPa 0,0 mm - 0,0 km/h 0,0 km/h O 0,0 W/qm 0,0 nein 06:20
06:254,1 °C 11,1 °C 12,8 °C 95 % 1013,4 hPa 0,0 mm - 0,0 km/h 0,0 km/h O 0,0 W/qm 0,0 nein 06:25
06:304,2 °C 11,1 °C 12,8 °C 95 % 1013,4 hPa 0,0 mm - 0,0 km/h 0,0 km/h O 0,0 W/qm 0,0 nein 06:30
06:354,1 °C 11,1 °C 12,8 °C 95 % 1013,3 hPa 0,0 mm - 0,0 km/h 0,0 km/h O 0,0 W/qm 0,0 nein 06:35
06:404,1 °C 11,1 °C 12,8 °C 95 % 1013,2 hPa 0,0 mm - 0,0 km/h 0,0 km/h O 0,0 W/qm 0,0 nein 06:40
06:454,3 °C 11,1 °C 12,8 °C 95 % 1013,2 hPa 0,0 mm - 0,0 km/h 0,0 km/h O 0,0 W/qm 0,0 nein 06:45
06:504,3 °C 11,1 °C 12,8 °C 95 % 1013,3 hPa 0,0 mm - 0,0 km/h 0,0 km/h O 0,0 W/qm 0,0 nein 06:50
06:554,3 °C 11,1 °C 12,8 °C 95 % 1013,4 hPa 0,0 mm - 0,0 km/h 0,0 km/h O 0,0 W/qm 0,0 nein 06:55
07:004,6 °C 11,1 °C 12,8 °C 95 % 1013,4 hPa 0,0 mm - 0,0 km/h 0,0 km/h O 0,0 W/qm 0,0 nein 07:00
07:054,6 °C 11,1 °C 12,8 °C 95 % 1013,4 hPa 0,0 mm 0,0 mm 0,0 km/h 0,0 km/h O 0,0 W/qm 0,0 nein 07:05
07:104,6 °C 11,1 °C 12,8 °C 95 % 1013,3 hPa 0,0 mm 0,0 mm 0,0 km/h 0,0 km/h O 0,0 W/qm 0,0 nein 07:10
07:154,3 °C 11,1 °C 12,8 °C 95 % 1013,3 hPa 0,0 mm - 0,0 km/h 0,0 km/h O 5,0 W/qm 0,0 nein 07:15
07:204,3 °C 11,1 °C 12,8 °C 95 % 1013,3 hPa 0,0 mm - 0,0 km/h 0,0 km/h O 7,0 W/qm 0,0 nein 07:20
07:254,2 °C 11,1 °C 12,8 °C 95 % 1013,3 hPa 0,0 mm - 0,0 km/h 0,0 km/h O 9,0 W/qm 0,0 nein 07:25
07:304,2 °C 11,1 °C 12,8 °C 95 % 1013,3 hPa 0,0 mm - 0,0 km/h 0,0 km/h O 11,0 W/qm 0,0 nein 07:30
07:354,1 °C 11,1 °C 12,8 °C 95 % 1013,4 hPa 0,0 mm - 0,0 km/h 0,0 km/h O 12,0 W/qm 0,0 nein 07:35
07:404,1 °C 11,1 °C 12,8 °C 95 % 1013,6 hPa 0,0 mm - 0,0 km/h 0,0 km/h O 16,0 W/qm 0,0 nein 07:40
07:454,1 °C 11,1 °C 12,8 °C 95 % 1013,6 hPa 0,0 mm - 0,0 km/h 0,0 km/h O 18,0 W/qm 0,0 nein 07:45
07:504,1 °C 11,1 °C 12,8 °C 95 % 1013,4 hPa 0,0 mm - 0,0 km/h 0,0 km/h O 25,0 W/qm 0,0 nein 07:50
07:554,0 °C 11,1 °C 12,8 °C 95 % 1013,4 hPa 0,0 mm - 0,0 km/h 0,0 km/h O 32,0 W/qm 0,0 nein 07:55
UhrzeitTemperaturBoden 10cmBoden 20cmFeuchteLuftdruckNiederschlagEvapotranspirationWindWindböenWindrichtungSolarstrahlungUV-IndexSonne?Uhrzeit
08:004,1 °C 11,1 °C 12,8 °C 95 % 1013,2 hPa 0,0 mm - 0,0 km/h 0,0 km/h O 32,0 W/qm 0,0 nein 08:00
08:054,2 °C 11,1 °C 12,8 °C 95 % 1013,2 hPa 0,0 mm 0,0 mm 0,0 km/h 0,0 km/h O 30,0 W/qm 0,0 nein 08:05
08:104,3 °C 11,1 °C 12,8 °C 95 % 1013,2 hPa 0,0 mm 0,0 mm 0,0 km/h 0,0 km/h O 30,0 W/qm 0,0 nein 08:10
08:154,4 °C 11,1 °C 12,8 °C 95 % 1013,1 hPa 0,0 mm - 0,0 km/h 0,0 km/h O 28,0 W/qm 0,0 nein 08:15
08:204,7 °C 11,1 °C 12,8 °C 95 % 1013,0 hPa 0,0 mm - 0,0 km/h 0,0 km/h O 25,0 W/qm 0,0 nein 08:20
08:254,9 °C 11,1 °C 12,8 °C 95 % 1012,9 hPa 0,0 mm - 0,0 km/h 0,0 km/h O 26,0 W/qm 0,0 nein 08:25
08:304,9 °C 11,1 °C 12,8 °C 95 % 1012,8 hPa 0,0 mm - 0,0 km/h 0,0 km/h O 35,0 W/qm 0,0 nein 08:30
08:355,1 °C 11,1 °C 12,8 °C 95 % 1012,9 hPa 0,0 mm - 0,0 km/h 0,0 km/h O 42,0 W/qm 0,0 nein 08:35
08:405,2 °C 11,1 °C 12,8 °C 95 % 1012,8 hPa 0,0 mm - 0,0 km/h 0,0 km/h O 40,0 W/qm 0,0 nein 08:40
08:455,4 °C 11,1 °C 12,8 °C 95 % 1012,7 hPa 0,0 mm - 0,0 km/h 0,0 km/h O 40,0 W/qm 0,0 nein 08:45
08:505,8 °C 11,1 °C 12,8 °C 95 % 1012,8 hPa 0,0 mm - 0,0 km/h 0,0 km/h S 42,0 W/qm 0,0 nein 08:50
08:556,1 °C 11,1 °C 12,8 °C 95 % 1012,7 hPa 0,0 mm - 0,0 km/h 0,0 km/h S 40,0 W/qm 0,0 nein 08:55
09:006,1 °C 11,1 °C 12,8 °C 95 % 1012,7 hPa 0,0 mm - 0,0 km/h 1,4 km/h S 40,0 W/qm 0,0 nein 09:00
09:056,1 °C 11,1 °C 12,8 °C 95 % 1012,7 hPa 0,0 mm 0,0 mm 0,0 km/h 1,4 km/h S 35,0 W/qm 0,0 nein 09:05
09:106,2 °C 11,1 °C 12,8 °C 95 % 1012,7 hPa 0,0 mm 0,0 mm 0,0 km/h 3,2 km/h S 39,0 W/qm 0,0 nein 09:10
09:156,3 °C 11,1 °C 12,8 °C 95 % 1012,6 hPa 0,0 mm - 0,0 km/h 3,2 km/h S 39,0 W/qm 0,0 nein 09:15
09:206,4 °C 11,1 °C 12,8 °C 95 % 1012,5 hPa 0,0 mm - 0,0 km/h 3,2 km/h S 40,0 W/qm 0,0 nein 09:20
09:256,5 °C 11,1 °C 12,8 °C 95 % 1012,6 hPa 0,0 mm - 0,0 km/h 3,2 km/h S 40,0 W/qm 0,0 nein 09:25
09:306,6 °C 11,1 °C 12,8 °C 95 % 1012,6 hPa 0,0 mm - 0,0 km/h 0,0 km/h S 37,0 W/qm 0,0 nein 09:30
09:356,7 °C 11,1 °C 12,8 °C 95 % 1012,5 hPa 0,0 mm - 0,0 km/h 0,0 km/h S 35,0 W/qm 0,0 nein 09:35
09:406,7 °C 11,1 °C 12,8 °C 95 % 1012,6 hPa 0,0 mm - 0,0 km/h 0,0 km/h S 30,0 W/qm 0,0 nein 09:40
09:456,8 °C 11,1 °C 12,8 °C 95 % 1012,6 hPa 0,0 mm - 0,0 km/h 0,0 km/h S 28,0 W/qm 0,0 nein 09:45
09:506,9 °C 11,1 °C 12,8 °C 95 % 1012,6 hPa 0,0 mm - 0,0 km/h 0,0 km/h S 28,0 W/qm 0,0 nein 09:50
09:557,0 °C 11,1 °C 12,8 °C 95 % 1012,6 hPa 0,2 mm - 0,0 km/h 3,2 km/h S 30,0 W/qm 0,0 nein 09:55
UhrzeitTemperaturBoden 10cmBoden 20cmFeuchteLuftdruckNiederschlagEvapotranspirationWindWindböenWindrichtungSolarstrahlungUV-IndexSonne?Uhrzeit
10:007,1 °C 11,1 °C 12,8 °C 95 % 1012,6 hPa 0,2 mm - 1,4 km/h 6,5 km/h S 30,0 W/qm 0,0 nein 10:00
10:057,2 °C 11,1 °C 12,8 °C 95 % 1012,5 hPa 0,4 mm 0,1 mm 1,4 km/h 6,5 km/h S 33,0 W/qm 0,0 nein 10:05
10:107,3 °C 11,1 °C 12,2 °C 95 % 1012,5 hPa 0,2 mm 0,1 mm 1,4 km/h 6,5 km/h SSW 35,0 W/qm 0,0 nein 10:10
10:157,3 °C 11,1 °C 12,2 °C 95 % 1012,4 hPa 0,2 mm - 3,2 km/h 6,5 km/h SSW 40,0 W/qm 0,0 nein 10:15
10:207,4 °C 11,1 °C 12,2 °C 95 % 1012,4 hPa 0,2 mm - 3,2 km/h 11,2 km/h S 37,0 W/qm 0,0 nein 10:20
10:257,4 °C 11,1 °C 12,2 °C 95 % 1012,4 hPa 0,2 mm - 4,7 km/h 11,2 km/h SSO 39,0 W/qm 0,0 nein 10:25
10:307,5 °C 11,1 °C 12,2 °C 95 % 1012,3 hPa 0,2 mm - 4,7 km/h 11,2 km/h S 42,0 W/qm 0,0 nein 10:30
10:357,5 °C 11,1 °C 12,2 °C 95 % 1012,2 hPa 0,2 mm - 4,7 km/h 11,2 km/h SSW 46,0 W/qm 0,0 nein 10:35
10:407,6 °C 11,1 °C 12,2 °C 95 % 1012,2 hPa 0,0 mm - 4,7 km/h 11,2 km/h S 51,0 W/qm 0,0 nein 10:40
10:457,7 °C 11,1 °C 12,2 °C 95 % 1012,2 hPa 0,2 mm - 6,5 km/h 11,2 km/h SSW 51,0 W/qm 0,0 nein 10:45
10:507,7 °C 11,1 °C 12,2 °C 95 % 1012,1 hPa 0,2 mm - 4,7 km/h 11,2 km/h S 49,0 W/qm 0,0 nein 10:50
10:557,8 °C 11,1 °C 12,2 °C 95 % 1012,1 hPa 0,0 mm - 6,5 km/h 11,2 km/h SSO 51,0 W/qm 0,0 nein 10:55
11:007,8 °C 11,1 °C 12,2 °C 95 % 1012,1 hPa 0,4 mm - 4,7 km/h 11,2 km/h S 54,0 W/qm 0,0 nein 11:00
11:057,8 °C 11,1 °C 12,2 °C 94 % 1012,0 hPa 0,2 mm 0,1 mm 4,7 km/h 11,2 km/h SSW 72,0 W/qm 0,0 nein 11:05
11:107,9 °C 11,1 °C 12,2 °C 94 % 1011,8 hPa 0,2 mm 0,1 mm 6,5 km/h 7,9 km/h SSW 62,0 W/qm 0,0 nein 11:10
11:157,9 °C 11,1 °C 12,2 °C 94 % 1011,7 hPa 0,0 mm - 6,5 km/h 14,4 km/h S 63,0 W/qm 0,0 nein 11:15
11:208,0 °C 11,1 °C 12,2 °C 95 % 1011,6 hPa 0,2 mm - 6,5 km/h 14,4 km/h S 72,0 W/qm 0,0 nein 11:20
11:258,0 °C 11,1 °C 12,2 °C 94 % 1011,6 hPa 0,0 mm - 6,5 km/h 14,4 km/h SSO 67,0 W/qm 0,0 nein 11:25
11:308,1 °C 11,1 °C 12,2 °C 94 % 1011,5 hPa 0,2 mm - 7,9 km/h 16,2 km/h SSO 88,0 W/qm 0,0 nein 11:30
11:358,1 °C 11,1 °C 12,2 °C 94 % 1011,4 hPa 0,0 mm - 6,5 km/h 16,2 km/h SSO 90,0 W/qm 0,0 nein 11:35
11:408,2 °C 11,1 °C 12,2 °C 94 % 1011,4 hPa 0,0 mm - 7,9 km/h 16,2 km/h S 88,0 W/qm 0,0 nein 11:40
11:458,3 °C 11,1 °C 12,2 °C 94 % 1011,4 hPa 0,2 mm - 7,9 km/h 14,4 km/h SSW 77,0 W/qm 0,0 nein 11:45
11:508,3 °C 11,1 °C 12,2 °C 94 % 1011,4 hPa 0,2 mm - 9,7 km/h 19,4 km/h SSW 70,0 W/qm 0,0 nein 11:50
11:558,3 °C 11,1 °C 12,2 °C 94 % 1011,2 hPa 0,0 mm - 9,7 km/h 19,4 km/h S 76,0 W/qm 0,0 nein 11:55
UhrzeitTemperaturBoden 10cmBoden 20cmFeuchteLuftdruckNiederschlagEvapotranspirationWindWindböenWindrichtungSolarstrahlungUV-IndexSonne?Uhrzeit
12:008,3 °C 11,1 °C 12,2 °C 94 % 1011,2 hPa 0,2 mm - 9,7 km/h 19,4 km/h SW 79,0 W/qm 0,0 nein 12:00
12:058,3 °C 11,1 °C 12,2 °C 94 % 1011,2 hPa 0,2 mm 0,1 mm 9,7 km/h 19,4 km/h SSW 76,0 W/qm 0,0 nein 12:05
12:108,3 °C 11,1 °C 12,2 °C 94 % 1011,0 hPa 0,0 mm 0,1 mm 9,7 km/h 20,9 km/h SSW 86,0 W/qm 0,0 nein 12:10
12:158,4 °C 11,1 °C 12,2 °C 94 % 1011,0 hPa 0,2 mm - 9,7 km/h 20,9 km/h SSW 102,0 W/qm 0,5 nein 12:15
12:208,4 °C 11,1 °C 12,2 °C 94 % 1011,1 hPa 0,2 mm - 9,7 km/h 19,4 km/h SSW 111,0 W/qm 0,5 nein 12:20
12:258,6 °C 11,1 °C 12,2 °C 94 % 1011,0 hPa 0,0 mm - 11,2 km/h 20,9 km/h SSW 153,0 W/qm 0,7 nein 12:25
12:308,7 °C 11,1 °C 12,2 °C 94 % 1011,1 hPa 0,0 mm - 11,2 km/h 22,7 km/h S 172,0 W/qm 0,8 nein 12:30
12:358,8 °C 11,1 °C 12,2 °C 93 % 1011,1 hPa 0,0 mm - 11,2 km/h 22,7 km/h SW 188,0 W/qm 0,8 nein 12:35
12:408,9 °C 11,1 °C 12,2 °C 93 % 1010,9 hPa 0,2 mm - 11,2 km/h 27,4 km/h S 156,0 W/qm 0,7 nein 12:40
12:458,9 °C 11,1 °C 12,2 °C 93 % 1011,0 hPa 0,0 mm - 11,2 km/h 27,4 km/h S 134,0 W/qm 0,6 nein 12:45
12:508,9 °C 11,1 °C 12,2 °C 93 % 1010,9 hPa 0,2 mm - 13,0 km/h 28,8 km/h SSW 153,0 W/qm 0,7 nein 12:50
12:558,9 °C 11,1 °C 12,2 °C 93 % 1010,9 hPa 0,0 mm - 13,0 km/h 28,8 km/h SSO 113,0 W/qm 0,5 nein 12:55
Gesamt: 4,8 °C 11,4 °C 12,8 °C 95 % 1013,5 hPa 5,4 mm 0,5 mm 1,7 km/h 3,9 km/h 0 24,8 W/qm 0,0 nein

Insgesamt 156 Zeilen mal 13 Spalten = 2028 Werte werden angezeigt.

www.wetter-rosstal.de   •   www.wetter-franken.de   •   www.lightningmaps.org   •   Start   •   Kontakt / Datenschutz   •   PC-Kümmerer